owner,sensor,date,latitude,longitude,vertical_datum,sea_water_practical_salinity,qcFlag 
WAVCIS,ioos:station:WAVCIS:CSI16:1,2009-03-06T23:30:00Z,29.4012,-89.0355,1.0,22.378,11111222 
WAVCIS,ioos:station:WAVCIS:CSI16:1,2009-03-06T23:45:00Z,29.4012,-89.0355,1.0,25.153,11111222 
WAVCIS,ioos:station:WAVCIS:CSI16:1,2009-03-07T00:00:00Z,29.4012,-89.0355,1.0,23.358,11111222 
WAVCIS,ioos:station:WAVCIS:CSI16:1,2009-03-07T00:15:00Z,29.4012,-89.0355,1.0,23.989,11111222 
WAVCIS,ioos:station:WAVCIS:CSI16:1,2009-03-07T00:30:00Z,29.4012,-89.0355,1.0,22.649,11111222 
WAVCIS,ioos:station:WAVCIS:CSI16:1,2009-03-07T00:45:00Z,29.4012,-89.0355,1.0,23.328,11111222 
WAVCIS,ioos:station:WAVCIS:CSI16:1,2009-03-07T01:00:00Z,29.4012,-89.0355,1.0,22.461,11111222 
WAVCIS,ioos:station:WAVCIS:CSI16:1,2009-03-07T01:15:00Z,29.4012,-89.0355,1.0,23.325,11111222 
WAVCIS,ioos:station:WAVCIS:CSI16:1,2009-03-07T01:30:00Z,29.4012,-89.0355,1.0,23.125,11111222 
WAVCIS,ioos:station:WAVCIS:CSI16:1,2009-03-07T01:45:00Z,29.4012,-89.0355,1.0,25.046,11111222 
WAVCIS,ioos:station:WAVCIS:CSI16:1,2009-03-07T02:00:00Z,29.4012,-89.0355,1.0,24.583,11111222 
WAVCIS,ioos:station:WAVCIS:CSI16:1,2009-03-07T02:15:00Z,29.4012,-89.0355,1.0,22.985,11111222 
WAVCIS,ioos:station:WAVCIS:CSI16:1,2009-03-07T02:30:00Z,29.4012,-89.0355,1.0,22.977,11111222 
WAVCIS,ioos:station:WAVCIS:CSI16:1,2009-03-07T02:45:00Z,29.4012,-89.0355,1.0,24.226,11111222 
WAVCIS,ioos:station:WAVCIS:CSI16:1,2009-03-07T03:00:00Z,29.4012,-89.0355,1.0,22.72,11111222 
WAVCIS,ioos:station:WAVCIS:CSI16:1,2009-03-07T03:15:00Z,29.4012,-89.0355,1.0,23.323,11111222 
WAVCIS,ioos:station:WAVCIS:CSI16:1,2009-03-07T03:30:00Z,29.4012,-89.0355,1.0,23.106,11111222 
WAVCIS,ioos:station:WAVCIS:CSI16:1,2009-03-07T03:45:00Z,29.4012,-89.0355,1.0,23.691,11111222 
WAVCIS,ioos:station:WAVCIS:CSI16:1,2009-03-07T04:00:00Z,29.4012,-89.0355,1.0,23.947,11111222 
WAVCIS,ioos:station:WAVCIS:CSI16:1,2009-03-07T04:15:00Z,29.4012,-89.0355,1.0,24.474,11111222 
WAVCIS,ioos:station:WAVCIS:CSI16:1,2009-03-07T04:30:00Z,29.4012,-89.0355,1.0,22.678,11111222 
WAVCIS,ioos:station:WAVCIS:CSI16:1,2009-03-07T04:45:00Z,29.4012,-89.0355,1.0,23.034,11111222 
WAVCIS,ioos:station:WAVCIS:CSI16:1,2009-03-07T05:00:00Z,29.4012,-89.0355,1.0,22.045,11111222 
WAVCIS,ioos:station:WAVCIS:CSI16:1,2009-03-07T05:15:00Z,29.4012,-89.0355,1.0,22.295,11111222 
WAVCIS,ioos:station:WAVCIS:CSI16:1,2009-03-07T05:30:00Z,29.4012,-89.0355,1.0,21.484,11111222 
WAVCIS,ioos:station:WAVCIS:CSI16:1,2009-03-07T05:45:00Z,29.4012,-89.0355,1.0,19.511,11111222 
WAVCIS,ioos:station:WAVCIS:CSI16:1,2009-03-07T06:00:00Z,29.4012,-89.0355,1.0,18.698,11111222 
WAVCIS,ioos:station:WAVCIS:CSI16:1,2009-03-07T06:15:00Z,29.4012,-89.0355,1.0,20.455,11111222 
WAVCIS,ioos:station:WAVCIS:CSI16:1,2009-03-07T06:30:00Z,29.4012,-89.0355,1.0,20.322,11111222 
WAVCIS,ioos:station:WAVCIS:CSI16:1,2009-03-07T06:45:00Z,29.4012,-89.0355,1.0,20.614,11111222 
WAVCIS,ioos:station:WAVCIS:CSI16:1,2009-03-07T07:00:00Z,29.4012,-89.0355,1.0,21.398,11111222 
WAVCIS,ioos:station:WAVCIS:CSI16:1,2009-03-07T07:15:00Z,29.4012,-89.0355,1.0,21.936,11111222 
WAVCIS,ioos:station:WAVCIS:CSI16:1,2009-03-07T07:30:00Z,29.4012,-89.0355,1.0,22.194,11111222 
WAVCIS,ioos:station:WAVCIS:CSI16:1,2009-03-07T07:45:00Z,29.4012,-89.0355,1.0,22.535,11111222 
WAVCIS,ioos:station:WAVCIS:CSI16:1,2009-03-07T08:00:00Z,29.4012,-89.0355,1.0,22.279,11111222 
WAVCIS,ioos:station:WAVCIS:CSI16:1,2009-03-07T08:15:00Z,29.4012,-89.0355,1.0,21.889,11111222 
WAVCIS,ioos:station:WAVCIS:CSI16:1,2009-03-07T08:30:00Z,29.4012,-89.0355,1.0,21.894,11111222 
WAVCIS,ioos:station:WAVCIS:CSI16:1,2009-03-07T08:45:00Z,29.4012,-89.0355,1.0,22.178,11111222 
WAVCIS,ioos:station:WAVCIS:CSI16:1,2009-03-07T09:00:00Z,29.4012,-89.0355,1.0,21.958,11111222 
WAVCIS,ioos:station:WAVCIS:CSI16:1,2009-03-07T09:15:00Z,29.4012,-89.0355,1.0,22.092,11111222 
WAVCIS,ioos:station:WAVCIS:CSI16:1,2009-03-07T09:30:00Z,29.4012,-89.0355,1.0,23.521,11111222 
WAVCIS,ioos:station:WAVCIS:CSI16:1,2009-03-07T09:45:00Z,29.4012,-89.0355,1.0,23.309,11111222 
WAVCIS,ioos:station:WAVCIS:CSI16:1,2009-03-07T10:00:00Z,29.4012,-89.0355,1.0,25.127,11111222 
WAVCIS,ioos:station:WAVCIS:CSI16:1,2009-03-07T10:15:00Z,29.4012,-89.0355,1.0,25.159,11111222 
WAVCIS,ioos:station:WAVCIS:CSI16:1,2009-03-07T10:30:00Z,29.4012,-89.0355,1.0,24.681,11111222 
WAVCIS,ioos:station:WAVCIS:CSI16:1,2009-03-07T10:45:00Z,29.4012,-89.0355,1.0,25.394,11111222 
WAVCIS,ioos:station:WAVCIS:CSI16:1,2009-03-07T11:00:00Z,29.4012,-89.0355,1.0,24.356,11111222 
WAVCIS,ioos:station:WAVCIS:CSI16:1,2009-03-07T11:15:00Z,29.4012,-89.0355,1.0,25.128,11111222 
WAVCIS,ioos:station:WAVCIS:CSI16:1,2009-03-07T11:30:00Z,29.4012,-89.0355,1.0,24.998,11111222 
WAVCIS,ioos:station:WAVCIS:CSI16:1,2009-03-07T11:45:00Z,29.4012,-89.0355,1.0,24.633,11111222 
WAVCIS,ioos:station:WAVCIS:CSI16:1,2009-03-07T12:00:00Z,29.4012,-89.0355,1.0,27.441,11111222 
WAVCIS,ioos:station:WAVCIS:CSI16:1,2009-03-07T12:15:00Z,29.4012,-89.0355,1.0,26.433,11111222 
WAVCIS,ioos:station:WAVCIS:CSI16:1,2009-03-07T12:30:00Z,29.4012,-89.0355,1.0,26.94,11111222 
WAVCIS,ioos:station:WAVCIS:CSI16:1,2009-03-07T12:45:00Z,29.4012,-89.0355,1.0,25.849,11111222 
WAVCIS,ioos:station:WAVCIS:CSI16:1,2009-03-07T13:00:00Z,29.4012,-89.0355,1.0,28.055,11111222 
WAVCIS,ioos:station:WAVCIS:CSI16:1,2009-03-07T13:15:00Z,29.4012,-89.0355,1.0,27.857,11111222 
WAVCIS,ioos:station:WAVCIS:CSI16:1,2009-03-07T13:30:00Z,29.4012,-89.0355,1.0,27.801,11111222 
WAVCIS,ioos:station:WAVCIS:CSI16:1,2009-03-07T13:45:00Z,29.4012,-89.0355,1.0,28.162,11111222 
WAVCIS,ioos:station:WAVCIS:CSI16:1,2009-03-07T14:00:00Z,29.4012,-89.0355,1.0,26.795,11111222 
WAVCIS,ioos:station:WAVCIS:CSI16:1,2009-03-07T14:15:00Z,29.4012,-89.0355,1.0,27.908,11111222 
WAVCIS,ioos:station:WAVCIS:CSI16:1,2009-03-07T14:30:00Z,29.4012,-89.0355,1.0,27.758,11111222 
WAVCIS,ioos:station:WAVCIS:CSI16:1,2009-03-07T14:45:00Z,29.4012,-89.0355,1.0,28.913,11111222 
WAVCIS,ioos:station:WAVCIS:CSI16:1,2009-03-07T15:00:00Z,29.4012,-89.0355,1.0,27.709,11111222 
WAVCIS,ioos:station:WAVCIS:CSI16:1,2009-03-07T15:15:00Z,29.4012,-89.0355,1.0,29.317,11111222 
WAVCIS,ioos:station:WAVCIS:CSI16:1,2009-03-07T15:30:00Z,29.4012,-89.0355,1.0,27.843,11111222 
WAVCIS,ioos:station:WAVCIS:CSI16:1,2009-03-07T15:45:00Z,29.4012,-89.0355,1.0,27.601,11111222 
WAVCIS,ioos:station:WAVCIS:CSI16:1,2009-03-07T16:00:00Z,29.4012,-89.0355,1.0,27.383,11111222 
WAVCIS,ioos:station:WAVCIS:CSI16:1,2009-03-07T16:15:00Z,29.4012,-89.0355,1.0,28.048,11111222 
WAVCIS,ioos:station:WAVCIS:CSI16:1,2009-03-07T16:30:00Z,29.4012,-89.0355,1.0,27.247,11111222 
WAVCIS,ioos:station:WAVCIS:CSI16:1,2009-03-07T16:45:00Z,29.4012,-89.0355,1.0,27.565,11111222 
WAVCIS,ioos:station:WAVCIS:CSI16:1,2009-03-07T17:00:00Z,29.4012,-89.0355,1.0,27.772,11111222 
WAVCIS,ioos:station:WAVCIS:CSI16:1,2009-03-07T17:15:00Z,29.4012,-89.0355,1.0,29.88,11111222 
WAVCIS,ioos:station:WAVCIS:CSI16:1,2009-03-07T17:30:00Z,29.4012,-89.0355,1.0,29.334,11111222 
WAVCIS,ioos:station:WAVCIS:CSI16:1,2009-03-07T17:45:00Z,29.4012,-89.0355,1.0,28.734,11111222 
WAVCIS,ioos:station:WAVCIS:CSI16:1,2009-03-07T18:00:00Z,29.4012,-89.0355,1.0,30.887,11111222 
WAVCIS,ioos:station:WAVCIS:CSI16:1,2009-03-07T18:15:00Z,29.4012,-89.0355,1.0,31.167,11111222 
WAVCIS,ioos:station:WAVCIS:CSI16:1,2009-03-07T18:30:00Z,29.4012,-89.0355,1.0,31.696,11111222 
WAVCIS,ioos:station:WAVCIS:CSI16:1,2009-03-07T18:45:00Z,29.4012,-89.0355,1.0,31.946,11111222 
WAVCIS,ioos:station:WAVCIS:CSI16:1,2009-03-07T19:00:00Z,29.4012,-89.0355,1.0,31.943,11111222 
WAVCIS,ioos:station:WAVCIS:CSI16:1,2009-03-07T19:15:00Z,29.4012,-89.0355,1.0,31.982,11111222 
WAVCIS,ioos:station:WAVCIS:CSI16:1,2009-03-07T19:30:00Z,29.4012,-89.0355,1.0,31.892,11111222 
WAVCIS,ioos:station:WAVCIS:CSI16:1,2009-03-07T19:45:00Z,29.4012,-89.0355,1.0,32.12,11111222 
WAVCIS,ioos:station:WAVCIS:CSI16:1,2009-03-07T20:00:00Z,29.4012,-89.0355,1.0,32.243,11111222 
WAVCIS,ioos:station:WAVCIS:CSI16:1,2009-03-07T20:15:00Z,29.4012,-89.0355,1.0,32.147,11111222 
WAVCIS,ioos:station:WAVCIS:CSI16:1,2009-03-07T21:30:00Z,29.4012,-89.0355,1.0,25.23,11111222 
WAVCIS,ioos:station:WAVCIS:CSI16:1,2009-03-07T21:45:00Z,29.4012,-89.0355,1.0,25.31,11111222 
WAVCIS,ioos:station:WAVCIS:CSI16:1,2009-03-07T22:00:00Z,29.4012,-89.0355,1.0,30.294,11111222 
WAVCIS,ioos:station:WAVCIS:CSI16:1,2009-03-07T22:15:00Z,29.4012,-89.0355,1.0,29.324,11111222 
WAVCIS,ioos:station:WAVCIS:CSI16:1,2009-03-07T22:30:00Z,29.4012,-89.0355,1.0,26.83,11111222 
WAVCIS,ioos:station:WAVCIS:CSI16:1,2009-03-07T22:45:00Z,29.4012,-89.0355,1.0,26.537,11111222 
WAVCIS,ioos:station:WAVCIS:CSI16:1,2009-03-07T23:00:00Z,29.4012,-89.0355,1.0,27.831,11111222 
WAVCIS,ioos:station:WAVCIS:CSI16:1,2009-03-07T23:15:00Z,29.4012,-89.0355,1.0,26.587,11111222 
WAVCIS,ioos:station:WAVCIS:CSI16:1,2009-03-07T23:30:00Z,29.4012,-89.0355,1.0,26.869,11111222 
WAVCIS,ioos:station:WAVCIS:CSI16:1,2009-03-07T23:45:00Z,29.4012,-89.0355,1.0,28.15,11111222 
WAVCIS,ioos:station:WAVCIS:CSI16:1,2009-03-08T00:00:00Z,29.4012,-89.0355,1.0,28.003,11111222 
WAVCIS,ioos:station:WAVCIS:CSI16:1,2009-03-08T00:15:00Z,29.4012,-89.0355,1.0,29.874,11111222 
WAVCIS,ioos:station:WAVCIS:CSI16:1,2009-03-08T00:30:00Z,29.4012,-89.0355,1.0,26.385,11111222 
WAVCIS,ioos:station:WAVCIS:CSI16:1,2009-03-08T00:45:00Z,29.4012,-89.0355,1.0,25.945,11111222 
WAVCIS,ioos:station:WAVCIS:CSI16:1,2009-03-08T01:00:00Z,29.4012,-89.0355,1.0,25.451,11111222 
WAVCIS,ioos:station:WAVCIS:CSI16:1,2009-03-08T01:15:00Z,29.4012,-89.0355,1.0,25.15,11111222 
WAVCIS,ioos:station:WAVCIS:CSI16:1,2009-03-08T01:30:00Z,29.4012,-89.0355,1.0,25.156,11111222 
WAVCIS,ioos:station:WAVCIS:CSI16:1,2009-03-08T01:45:00Z,29.4012,-89.0355,1.0,25.314,11111222 
WAVCIS,ioos:station:WAVCIS:CSI16:1,2009-03-08T02:00:00Z,29.4012,-89.0355,1.0,25.92,11111222 
WAVCIS,ioos:station:WAVCIS:CSI16:1,2009-03-08T02:15:00Z,29.4012,-89.0355,1.0,24.292,11111222 
WAVCIS,ioos:station:WAVCIS:CSI16:1,2009-03-08T02:30:00Z,29.4012,-89.0355,1.0,23.36,11111222 
WAVCIS,ioos:station:WAVCIS:CSI16:1,2009-03-08T02:45:00Z,29.4012,-89.0355,1.0,22.483,11111222 
WAVCIS,ioos:station:WAVCIS:CSI16:1,2009-03-08T03:00:00Z,29.4012,-89.0355,1.0,25.474,11111222 
WAVCIS,ioos:station:WAVCIS:CSI16:1,2009-03-08T03:15:00Z,29.4012,-89.0355,1.0,22.698,11111222 
WAVCIS,ioos:station:WAVCIS:CSI16:1,2009-03-08T03:30:00Z,29.4012,-89.0355,1.0,22.725,11111222 
WAVCIS,ioos:station:WAVCIS:CSI16:1,2009-03-08T03:45:00Z,29.4012,-89.0355,1.0,25.238,11111222 
WAVCIS,ioos:station:WAVCIS:CSI16:1,2009-03-08T04:00:00Z,29.4012,-89.0355,1.0,26.64,11111222 
WAVCIS,ioos:station:WAVCIS:CSI16:1,2009-03-08T04:15:00Z,29.4012,-89.0355,1.0,31.577,11111222 
WAVCIS,ioos:station:WAVCIS:CSI16:1,2009-03-08T04:30:00Z,29.4012,-89.0355,1.0,27.273,11111222 
WAVCIS,ioos:station:WAVCIS:CSI16:1,2009-03-08T04:45:00Z,29.4012,-89.0355,1.0,25.431,11111222 
WAVCIS,ioos:station:WAVCIS:CSI16:1,2009-03-08T05:00:00Z,29.4012,-89.0355,1.0,27.213,11111222 
WAVCIS,ioos:station:WAVCIS:CSI16:1,2009-03-08T05:15:00Z,29.4012,-89.0355,1.0,26.001,11111222 
WAVCIS,ioos:station:WAVCIS:CSI16:1,2009-03-08T05:30:00Z,29.4012,-89.0355,1.0,24.452,11111222 
WAVCIS,ioos:station:WAVCIS:CSI16:1,2009-03-08T05:45:00Z,29.4012,-89.0355,1.0,24.897,11111222 
WAVCIS,ioos:station:WAVCIS:CSI16:1,2009-03-08T06:00:00Z,29.4012,-89.0355,1.0,26.374,11111222 
WAVCIS,ioos:station:WAVCIS:CSI16:1,2009-03-08T06:15:00Z,29.4012,-89.0355,1.0,29.221,11111222 
WAVCIS,ioos:station:WAVCIS:CSI16:1,2009-03-08T06:30:00Z,29.4012,-89.0355,1.0,28.252,11111222 
WAVCIS,ioos:station:WAVCIS:CSI16:1,2009-03-08T06:45:00Z,29.4012,-89.0355,1.0,27.869,11111222 
WAVCIS,ioos:station:WAVCIS:CSI16:1,2009-03-08T07:00:00Z,29.4012,-89.0355,1.0,19.766,11111222 
WAVCIS,ioos:station:WAVCIS:CSI16:1,2009-03-08T07:15:00Z,29.4012,-89.0355,1.0,20.992,11111222 
WAVCIS,ioos:station:WAVCIS:CSI16:1,2009-03-08T07:30:00Z,29.4012,-89.0355,1.0,21.408,11111222 
WAVCIS,ioos:station:WAVCIS:CSI16:1,2009-03-08T07:45:00Z,29.4012,-89.0355,1.0,22.359,11111222 
WAVCIS,ioos:station:WAVCIS:CSI16:1,2009-03-08T08:00:00Z,29.4012,-89.0355,1.0,21.862,11111222 
WAVCIS,ioos:station:WAVCIS:CSI16:1,2009-03-08T08:15:00Z,29.4012,-89.0355,1.0,23.513,11111222 
WAVCIS,ioos:station:WAVCIS:CSI16:1,2009-03-08T08:30:00Z,29.4012,-89.0355,1.0,25.249,11111222 
WAVCIS,ioos:station:WAVCIS:CSI16:1,2009-03-08T08:45:00Z,29.4012,-89.0355,1.0,22.326,11111222 
WAVCIS,ioos:station:WAVCIS:CSI16:1,2009-03-08T09:00:00Z,29.4012,-89.0355,1.0,23.363,11111222 
WAVCIS,ioos:station:WAVCIS:CSI16:1,2009-03-08T09:15:00Z,29.4012,-89.0355,1.0,22.996,11111222 
WAVCIS,ioos:station:WAVCIS:CSI16:1,2009-03-08T09:30:00Z,29.4012,-89.0355,1.0,24.18,11111222 
WAVCIS,ioos:station:WAVCIS:CSI16:1,2009-03-08T09:45:00Z,29.4012,-89.0355,1.0,22.218,11111222 
WAVCIS,ioos:station:WAVCIS:CSI16:1,2009-03-08T10:00:00Z,29.4012,-89.0355,1.0,22.529,11111222 
WAVCIS,ioos:station:WAVCIS:CSI16:1,2009-03-08T10:15:00Z,29.4012,-89.0355,1.0,22.164,11111222 
WAVCIS,ioos:station:WAVCIS:CSI16:1,2009-03-08T10:30:00Z,29.4012,-89.0355,1.0,22.737,11111222 
WAVCIS,ioos:station:WAVCIS:CSI16:1,2009-03-08T10:45:00Z,29.4012,-89.0355,1.0,24.903,11111222 
WAVCIS,ioos:station:WAVCIS:CSI16:1,2009-03-08T11:00:00Z,29.4012,-89.0355,1.0,26.576,11111222 
WAVCIS,ioos:station:WAVCIS:CSI16:1,2009-03-08T11:15:00Z,29.4012,-89.0355,1.0,25.719,11111222 
WAVCIS,ioos:station:WAVCIS:CSI16:1,2009-03-08T11:30:00Z,29.4012,-89.0355,1.0,25.782,11111222 
WAVCIS,ioos:station:WAVCIS:CSI16:1,2009-03-08T11:45:00Z,29.4012,-89.0355,1.0,26.628,11111222 
WAVCIS,ioos:station:WAVCIS:CSI16:1,2009-03-08T12:00:00Z,29.4012,-89.0355,1.0,27.217,11111222 
WAVCIS,ioos:station:WAVCIS:CSI16:1,2009-03-08T12:15:00Z,29.4012,-89.0355,1.0,26.743,11111222 
WAVCIS,ioos:station:WAVCIS:CSI16:1,2009-03-08T12:30:00Z,29.4012,-89.0355,1.0,27.999,11111222 
WAVCIS,ioos:station:WAVCIS:CSI16:1,2009-03-08T12:45:00Z,29.4012,-89.0355,1.0,28.919,11111222 
WAVCIS,ioos:station:WAVCIS:CSI16:1,2009-03-08T13:00:00Z,29.4012,-89.0355,1.0,27.583,11111222 
WAVCIS,ioos:station:WAVCIS:CSI16:1,2009-03-08T13:15:00Z,29.4012,-89.0355,1.0,27.879,11111222 
WAVCIS,ioos:station:WAVCIS:CSI16:1,2009-03-08T13:30:00Z,29.4012,-89.0355,1.0,28.314,11111222 
WAVCIS,ioos:station:WAVCIS:CSI16:1,2009-03-08T13:45:00Z,29.4012,-89.0355,1.0,28.781,11111222 
WAVCIS,ioos:station:WAVCIS:CSI16:1,2009-03-08T14:00:00Z,29.4012,-89.0355,1.0,29.493,11111222 
WAVCIS,ioos:station:WAVCIS:CSI16:1,2009-03-08T14:15:00Z,29.4012,-89.0355,1.0,29.64,11111222 
WAVCIS,ioos:station:WAVCIS:CSI16:1,2009-03-08T14:30:00Z,29.4012,-89.0355,1.0,29.906,11111222 
WAVCIS,ioos:station:WAVCIS:CSI16:1,2009-03-08T14:45:00Z,29.4012,-89.0355,1.0,29.722,11111222 
WAVCIS,ioos:station:WAVCIS:CSI16:1,2009-03-08T15:00:00Z,29.4012,-89.0355,1.0,30.13,11111222 
WAVCIS,ioos:station:WAVCIS:CSI16:1,2009-03-08T15:15:00Z,29.4012,-89.0355,1.0,29.759,11111222 
WAVCIS,ioos:station:WAVCIS:CSI16:1,2009-03-08T15:30:00Z,29.4012,-89.0355,1.0,29.307,11111222 
WAVCIS,ioos:station:WAVCIS:CSI16:1,2009-03-08T15:45:00Z,29.4012,-89.0355,1.0,29.791,11111222 
WAVCIS,ioos:station:WAVCIS:CSI16:1,2009-03-08T16:00:00Z,29.4012,-89.0355,1.0,28.666,11111222 
WAVCIS,ioos:station:WAVCIS:CSI16:1,2009-03-08T16:15:00Z,29.4012,-89.0355,1.0,28.67,11111222 
WAVCIS,ioos:station:WAVCIS:CSI16:1,2009-03-08T16:30:00Z,29.4012,-89.0355,1.0,28.675,11111222 
WAVCIS,ioos:station:WAVCIS:CSI16:1,2009-03-08T16:45:00Z,29.4012,-89.0355,1.0,28.902,11111222 
WAVCIS,ioos:station:WAVCIS:CSI16:1,2009-03-08T17:00:00Z,29.4012,-89.0355,1.0,28.736,11111222 
WAVCIS,ioos:station:WAVCIS:CSI16:1,2009-03-08T17:15:00Z,29.4012,-89.0355,1.0,29.24,11111222 
WAVCIS,ioos:station:WAVCIS:CSI16:1,2009-03-08T17:30:00Z,29.4012,-89.0355,1.0,28.799,11111222 
WAVCIS,ioos:station:WAVCIS:CSI16:1,2009-03-08T17:45:00Z,29.4012,-89.0355,1.0,28.861,11111222 
WAVCIS,ioos:station:WAVCIS:CSI16:1,2009-03-08T18:00:00Z,29.4012,-89.0355,1.0,29.074,11111222 
WAVCIS,ioos:station:WAVCIS:CSI16:1,2009-03-08T18:15:00Z,29.4012,-89.0355,1.0,29.212,11111222 
WAVCIS,ioos:station:WAVCIS:CSI16:1,2009-03-08T18:30:00Z,29.4012,-89.0355,1.0,29.339,11111222 
WAVCIS,ioos:station:WAVCIS:CSI16:1,2009-03-08T18:45:00Z,29.4012,-89.0355,1.0,29.217,11111222 
WAVCIS,ioos:station:WAVCIS:CSI16:1,2009-03-08T19:00:00Z,29.4012,-89.0355,1.0,29.938,11111222 
WAVCIS,ioos:station:WAVCIS:CSI16:1,2009-03-08T19:15:00Z,29.4012,-89.0355,1.0,30.008,11111222 
WAVCIS,ioos:station:WAVCIS:CSI16:1,2009-03-08T19:30:00Z,29.4012,-89.0355,1.0,31.027,11111222 
WAVCIS,ioos:station:WAVCIS:CSI16:1,2009-03-08T19:45:00Z,29.4012,-89.0355,1.0,30.799,11111222 
WAVCIS,ioos:station:WAVCIS:CSI16:1,2009-03-08T20:00:00Z,29.4012,-89.0355,1.0,31.933,11111222 
WAVCIS,ioos:station:WAVCIS:CSI16:1,2009-03-08T20:15:00Z,29.4012,-89.0355,1.0,30.838,11111222 
WAVCIS,ioos:station:WAVCIS:CSI16:1,2009-03-08T20:30:00Z,29.4012,-89.0355,1.0,31.712,11111222 
WAVCIS,ioos:station:WAVCIS:CSI16:1,2009-03-08T20:45:00Z,29.4012,-89.0355,1.0,31.847,11111222 
WAVCIS,ioos:station:WAVCIS:CSI16:1,2009-03-08T21:00:00Z,29.4012,-89.0355,1.0,31.839,11111222 
WAVCIS,ioos:station:WAVCIS:CSI16:1,2009-03-08T21:15:00Z,29.4012,-89.0355,1.0,32.459,11111222 
WAVCIS,ioos:station:WAVCIS:CSI16:1,2009-03-08T21:30:00Z,29.4012,-89.0355,1.0,32.363,11111222 
WAVCIS,ioos:station:WAVCIS:CSI16:1,2009-03-08T21:45:00Z,29.4012,-89.0355,1.0,32.303,11111222 
WAVCIS,ioos:station:WAVCIS:CSI16:1,2009-03-08T22:00:00Z,29.4012,-89.0355,1.0,31.17,11111222 
WAVCIS,ioos:station:WAVCIS:CSI16:1,2009-03-08T22:15:00Z,29.4012,-89.0355,1.0,31.137,11111222 
WAVCIS,ioos:station:WAVCIS:CSI16:1,2009-03-08T22:30:00Z,29.4012,-89.0355,1.0,30.5,11111222 
WAVCIS,ioos:station:WAVCIS:CSI16:1,2009-03-08T22:45:00Z,29.4012,-89.0355,1.0,30.453,11111222 
WAVCIS,ioos:station:WAVCIS:CSI16:1,2009-03-08T23:00:00Z,29.4012,-89.0355,1.0,29.27,11111222 
WAVCIS,ioos:station:WAVCIS:CSI16:1,2009-03-08T23:15:00Z,29.4012,-89.0355,1.0,28.941,11111222 
WAVCIS,ioos:station:WAVCIS:CSI16:1,2009-03-08T23:30:00Z,29.4012,-89.0355,1.0,30.137,11111222 
WAVCIS,ioos:station:WAVCIS:CSI16:1,2009-03-08T23:45:00Z,29.4012,-89.0355,1.0,28.053,11111222 
WAVCIS,ioos:station:WAVCIS:CSI16:1,2009-03-09T00:00:00Z,29.4012,-89.0355,1.0,26.938,11111222 
WAVCIS,ioos:station:WAVCIS:CSI16:1,2009-03-09T00:15:00Z,29.4012,-89.0355,1.0,28.582,11111222 
WAVCIS,ioos:station:WAVCIS:CSI16:1,2009-03-09T00:30:00Z,29.4012,-89.0355,1.0,27.748,11111222 
WAVCIS,ioos:station:WAVCIS:CSI16:1,2009-03-09T00:45:00Z,29.4012,-89.0355,1.0,26.537,11111222 
WAVCIS,ioos:station:WAVCIS:CSI16:1,2009-03-09T01:00:00Z,29.4012,-89.0355,1.0,27.465,11111222 
WAVCIS,ioos:station:WAVCIS:CSI16:1,2009-03-09T01:15:00Z,29.4012,-89.0355,1.0,27.882,11111222 
WAVCIS,ioos:station:WAVCIS:CSI16:1,2009-03-09T01:30:00Z,29.4012,-89.0355,1.0,27.732,11111222 
WAVCIS,ioos:station:WAVCIS:CSI16:1,2009-03-09T01:45:00Z,29.4012,-89.0355,1.0,29.389,11111222 
WAVCIS,ioos:station:WAVCIS:CSI16:1,2009-03-09T02:00:00Z,29.4012,-89.0355,1.0,29.8,11111222 
WAVCIS,ioos:station:WAVCIS:CSI16:1,2009-03-09T02:15:00Z,29.4012,-89.0355,1.0,30.031,11111222 
WAVCIS,ioos:station:WAVCIS:CSI16:1,2009-03-09T03:30:00Z,29.4012,-89.0355,1.0,30.535,11111222 
WAVCIS,ioos:station:WAVCIS:CSI16:1,2009-03-09T03:45:00Z,29.4012,-89.0355,1.0,30.267,11111222 
WAVCIS,ioos:station:WAVCIS:CSI16:1,2009-03-09T04:00:00Z,29.4012,-89.0355,1.0,30.371,11111222 
WAVCIS,ioos:station:WAVCIS:CSI16:1,2009-03-09T04:15:00Z,29.4012,-89.0355,1.0,30.504,11111222 
WAVCIS,ioos:station:WAVCIS:CSI16:1,2009-03-09T04:30:00Z,29.4012,-89.0355,1.0,30.34,11111222 
WAVCIS,ioos:station:WAVCIS:CSI16:1,2009-03-09T04:45:00Z,29.4012,-89.0355,1.0,30.512,11111222 
WAVCIS,ioos:station:WAVCIS:CSI16:1,2009-03-09T05:00:00Z,29.4012,-89.0355,1.0,30.067,11111222 
WAVCIS,ioos:station:WAVCIS:CSI16:1,2009-03-09T05:15:00Z,29.4012,-89.0355,1.0,29.916,11111222 
WAVCIS,ioos:station:WAVCIS:CSI16:1,2009-03-09T05:30:00Z,29.4012,-89.0355,1.0,29.772,11111222 
WAVCIS,ioos:station:WAVCIS:CSI16:1,2009-03-09T05:45:00Z,29.4012,-89.0355,1.0,29.531,11111222 
WAVCIS,ioos:station:WAVCIS:CSI16:1,2009-03-09T06:00:00Z,29.4012,-89.0355,1.0,30.03,11111222 
WAVCIS,ioos:station:WAVCIS:CSI16:1,2009-03-09T06:15:00Z,29.4012,-89.0355,1.0,29.804,11111222 
WAVCIS,ioos:station:WAVCIS:CSI16:1,2009-03-09T06:30:00Z,29.4012,-89.0355,1.0,30.266,11111222 
WAVCIS,ioos:station:WAVCIS:CSI16:1,2009-03-09T06:45:00Z,29.4012,-89.0355,1.0,30.431,11111222 
WAVCIS,ioos:station:WAVCIS:CSI16:1,2009-03-09T07:00:00Z,29.4012,-89.0355,1.0,29.086,11111222 
WAVCIS,ioos:station:WAVCIS:CSI16:1,2009-03-09T07:15:00Z,29.4012,-89.0355,1.0,30.5,11111222 
WAVCIS,ioos:station:WAVCIS:CSI16:1,2009-03-09T07:30:00Z,29.4012,-89.0355,1.0,29.783,11111222 
WAVCIS,ioos:station:WAVCIS:CSI16:1,2009-03-09T07:45:00Z,29.4012,-89.0355,1.0,21.092,11111222 
WAVCIS,ioos:station:WAVCIS:CSI16:1,2009-03-09T08:00:00Z,29.4012,-89.0355,1.0,22.017,11111222 
WAVCIS,ioos:station:WAVCIS:CSI16:1,2009-03-09T08:15:00Z,29.4012,-89.0355,1.0,22.184,11111222 
WAVCIS,ioos:station:WAVCIS:CSI16:1,2009-03-09T08:30:00Z,29.4012,-89.0355,1.0,19.989,11111222 
WAVCIS,ioos:station:WAVCIS:CSI16:1,2009-03-09T08:45:00Z,29.4012,-89.0355,1.0,23.323,11111222 
WAVCIS,ioos:station:WAVCIS:CSI16:1,2009-03-09T09:00:00Z,29.4012,-89.0355,1.0,24.346,11111222 
WAVCIS,ioos:station:WAVCIS:CSI16:1,2009-03-09T09:15:00Z,29.4012,-89.0355,1.0,26.131,11111222 
WAVCIS,ioos:station:WAVCIS:CSI16:1,2009-03-09T09:30:00Z,29.4012,-89.0355,1.0,27.012,11111222 
WAVCIS,ioos:station:WAVCIS:CSI16:1,2009-03-09T09:45:00Z,29.4012,-89.0355,1.0,28.173,11111222 
WAVCIS,ioos:station:WAVCIS:CSI16:1,2009-03-09T10:00:00Z,29.4012,-89.0355,1.0,28.583,11111222 
WAVCIS,ioos:station:WAVCIS:CSI16:1,2009-03-09T10:15:00Z,29.4012,-89.0355,1.0,29.009,11111222 
WAVCIS,ioos:station:WAVCIS:CSI16:1,2009-03-09T10:30:00Z,29.4012,-89.0355,1.0,29.361,11111222 
WAVCIS,ioos:station:WAVCIS:CSI16:1,2009-03-09T10:45:00Z,29.4012,-89.0355,1.0,29.813,11111222 
WAVCIS,ioos:station:WAVCIS:CSI16:1,2009-03-09T11:00:00Z,29.4012,-89.0355,1.0,29.508,11111222 
WAVCIS,ioos:station:WAVCIS:CSI16:1,2009-03-09T11:15:00Z,29.4012,-89.0355,1.0,29.538,11111222 
WAVCIS,ioos:station:WAVCIS:CSI16:1,2009-03-09T11:30:00Z,29.4012,-89.0355,1.0,28.811,11111222 
WAVCIS,ioos:station:WAVCIS:CSI16:1,2009-03-09T11:45:00Z,29.4012,-89.0355,1.0,27.732,11111222 
WAVCIS,ioos:station:WAVCIS:CSI16:1,2009-03-09T12:00:00Z,29.4012,-89.0355,1.0,29.203,11111222 
WAVCIS,ioos:station:WAVCIS:CSI16:1,2009-03-09T12:15:00Z,29.4012,-89.0355,1.0,22.201,11111222 
WAVCIS,ioos:station:WAVCIS:CSI16:1,2009-03-09T12:30:00Z,29.4012,-89.0355,1.0,22.295,11111222 
WAVCIS,ioos:station:WAVCIS:CSI16:1,2009-03-09T12:45:00Z,29.4012,-89.0355,1.0,26.307,11111222 
WAVCIS,ioos:station:WAVCIS:CSI16:1,2009-03-09T13:00:00Z,29.4012,-89.0355,1.0,24.483,11111222 
WAVCIS,ioos:station:WAVCIS:CSI16:1,2009-03-09T13:15:00Z,29.4012,-89.0355,1.0,24.918,11111222 
WAVCIS,ioos:station:WAVCIS:CSI16:1,2009-03-09T13:30:00Z,29.4012,-89.0355,1.0,27.293,11111222 
WAVCIS,ioos:station:WAVCIS:CSI16:1,2009-03-09T13:45:00Z,29.4012,-89.0355,1.0,28.028,11111222 
WAVCIS,ioos:station:WAVCIS:CSI16:1,2009-03-09T14:00:00Z,29.4012,-89.0355,1.0,27.788,11111222 
WAVCIS,ioos:station:WAVCIS:CSI16:1,2009-03-09T14:15:00Z,29.4012,-89.0355,1.0,28.452,11111222 
WAVCIS,ioos:station:WAVCIS:CSI16:1,2009-03-09T14:30:00Z,29.4012,-89.0355,1.0,28.243,11111222 
WAVCIS,ioos:station:WAVCIS:CSI16:1,2009-03-09T14:45:00Z,29.4012,-89.0355,1.0,28.985,11111222 
WAVCIS,ioos:station:WAVCIS:CSI16:1,2009-03-09T15:00:00Z,29.4012,-89.0355,1.0,29.23,11111222 
WAVCIS,ioos:station:WAVCIS:CSI16:1,2009-03-09T15:15:00Z,29.4012,-89.0355,1.0,29.538,11111222 
WAVCIS,ioos:station:WAVCIS:CSI16:1,2009-03-09T15:30:00Z,29.4012,-89.0355,1.0,29.733,11111222 
WAVCIS,ioos:station:WAVCIS:CSI16:1,2009-03-09T15:45:00Z,29.4012,-89.0355,1.0,30.441,11111222 
WAVCIS,ioos:station:WAVCIS:CSI16:1,2009-03-09T16:00:00Z,29.4012,-89.0355,1.0,30.447,11111222 
WAVCIS,ioos:station:WAVCIS:CSI16:1,2009-03-09T16:15:00Z,29.4012,-89.0355,1.0,30.66,11111222 
WAVCIS,ioos:station:WAVCIS:CSI16:1,2009-03-09T16:30:00Z,29.4012,-89.0355,1.0,30.804,11111222 
WAVCIS,ioos:station:WAVCIS:CSI16:1,2009-03-09T16:45:00Z,29.4012,-89.0355,1.0,31.12,11111222 